Find Starlink 30953

NORAD ID: 58491 Int'l Des: 2023-186 Owner: SPXS Country: US Constellation: starlink operational
LEOCIRCULAR

現在のビュー

3D地球を読み込み中...

About Starlink 30953

Starlink 30953 (NORAD 58491) is a starlink constellation satellite (v2 mini) launched Dec 3, 2023 by SPXS of US. It operates in LEO, CIRCULAR orbit with a mass of 730.00 kg.

次回通過

Passes for default location (London). Set your location on the main map for personalized predictions.

高度履歴

Loading altitude history...

軌道要素

1 58491U 23186U 26224.00508072 -.00001216 00000-0 -34692-4 0 9995
2 58491 43.0055 110.3645 0001138 271.0835 88.9886 15.27575971151648
Epoch: Aug 12, 2026 • Age: 35 hours

現在のステータス

高度 489.6 km
遠地点 / 近地点 N/A
速度 7.62 km/s
衛星直下点 -27.13°S, 179.02°E
打ち上げ日 Dec 3, 2023
運用期間 2.6 years
タイプ internet

技術仕様

分類 Payload
質量 730.00 kg
乾燥質量 700.00 kg
総質量 730.00 kg
長さ 0.30 m
直径 4.10 m
スパン 29.00 m
形状 Box + pan
製造者 SPXS
バスタイプ Starlink V2M
フェーズステータス In Orbit
所有者/国 SPXS/US

Most Searched